Home   Weather   33°41'N, 117°55'W   Past weeks
Flag for USA

Past Weather in 33°41'N, 117°55'W, USA — Yesterday and Last 2 Weeks

Now
89 °F

Sunny.


Feels Like: 86 °F
Forecast: 82 / 61 °F
Wind: 8 mph from Southwest

Location: John Wayne Airport-Orange County Airport

Current Time: Oct 21, 2019 at 2:13:01 pm

Latest Report: Oct 21, 2019 at 12:53 pm


Visibility: 10 mi

Pressure: 29.97 "Hg

Humidity: 22%

Dew Point: 46 °F

Location of 33°41'N, 117°55'WLocation

Past Weather in 33°41'N, 117°55'W — Graph

°F

33°41'N, 117°55'W Temperature Yesterday

Maximum temperature yesterday: 79 °F (at 12:53 pm)
Minimum temperature yesterday: 59 °F (at 6:53 am)
Average temperature yesterday: 68 °F

High & Low Weather Summary for the Past Weeks

 TemperatureHumidityPressure
High89 °F (Oct 11, 12:53 pm)90% (Oct 8, 4:30 am)30.01 "Hg (Oct 8, 4:30 am)
Low58 °F (Oct 12, 6:53 am)6% (Oct 11, 10:53 am)29.76 "Hg (Oct 17, 4:53 pm)
Average69 °F60%29.88 "Hg
* Reported Oct 6 12:53 pm — Oct 21 12:53 pm, 33°41'N, 117°55'W. Weather by CustomWeather, © 2019

Note: Actual official high and low records may vary slightly from our data, if they occured in-between our weather recording intervals... More about our weather records

Advertising

33°41'N, 117°55'W Weather History for the Previous 24 Hours

Scroll right to see more
 ConditionsComfort  
Time TempWeatherWind HumidityBarometerVisibility
12:53 pm
Mon, Oct 21
89 °FSunny.8 mph22%29.97 "Hg10 mi
11:53 am88 °FPassing clouds.9 mph29%29.99 "Hg10 mi
10:53 am82 °FPassing clouds.3 mph29%29.99 "Hg10 mi
9:53 am75 °FPassing clouds.No wind42%30.00 "Hg10 mi
8:53 am71 °FSunny.No wind47%29.99 "Hg10 mi
7:53 am65 °FSunny.No wind59%29.96 "Hg10 mi
6:53 am60 °FClear.3 mph69%29.95 "Hg10 mi
5:53 am62 °FClear.No wind67%29.93 "Hg10 mi
4:53 am63 °FClear.No wind65%29.92 "Hg10 mi
3:53 am64 °FClear.6 mph65%29.91 "Hg10 mi
2:53 am65 °FClear.No wind63%29.92 "Hg10 mi
1:53 am65 °FClear.No wind66%29.92 "Hg10 mi
12:53 am65 °FClear.3 mph66%29.91 "Hg10 mi
11:53 pm
Sun, Oct 20
67 °FClear.No wind63%29.91 "Hg10 mi
10:53 pm69 °FClear.No wind55%29.90 "Hg10 mi
9:53 pm71 °FClear.3 mph57%29.89 "Hg10 mi
8:53 pm72 °FClear.No wind55%29.87 "Hg10 mi
7:53 pm72 °FClear.5 mph55%29.86 "Hg10 mi
6:53 pm74 °FPassing clouds.No wind56%29.83 "Hg10 mi
5:53 pm75 °FPassing clouds.6 mph58%29.83 "Hg10 mi
4:53 pm77 °FPassing clouds.7 mph56%29.83 "Hg10 mi
3:53 pm78 °FPassing clouds.7 mph52%29.83 "Hg10 mi
2:53 pm77 °FPassing clouds.8 mph54%29.84 "Hg10 mi
Weather by CustomWeather, © 2019

See weather overview